NIMIQ 5

Last updated on Fri Sep 19 2025 00:02:47 GMT+0000 (Coordinated Universal Time)

1 35873U 09050A 25261.22752986 .00000000 00000+0 00000+0 0 9995 2 35873 0.0256 163.9495 0002674 24.5078 178.1511 1.00270289 58616
UTC large
Height (km)
Speed (km/s)
/
Latitude / Longitude
Inclination (degrees)
Orbital Period (minutes)
Azimuth
Elevation
Range (km)
Doppler Factor

Next 0 passes for location: London (51.5072 / 0.1276)

Sorry there are no passes over London.